Hamilton, OH

6:09 PM EST on November 22, 2017 (GMT -0500)
Butler County Regional

Weather History for KHAO - May, 2013

Change the Weather History Date:

Friday, May 24, 2013

  Actual Average (KLUK) Record (KLUK)
Temperature  
Mean Temperature 55 °F -  
Max Temperature 66 °F 77 °F 93 °F (1975)
Min Temperature 45 °F 56 °F 37 °F (1963)
Degree Days  
Heating Degree Days 10    
Growing Degree Days 5 (Base 50)    
Moisture  
Dew Point 42 °F    
Average Humidity 66    
Maximum Humidity 90    
Minimum Humidity 37    
Precipitation  
Precipitation 0.00 in - - ()
Sea Level Pressure  
Sea Level Pressure 30.26 in    
Wind  
Wind Speed 8 mph (North)    
Max Wind Speed 12 mph    
Max Gust Speed 22 mph    
Visibility 10 miles    
Events Rain    
Averages and records for this station are not official NWS values.
T = Trace of Precipitation, MM = Missing Value Source: NWS Daily Summary

Daily Weather History Graph

Daily Weather History Graph

Search for Another Location

Airport or City:

Trip Planner

Search our weather history database for the weather conditions in past years. The results will help you decide how hot, cold, wet, or windy it might be!

Date:

Astronomy

May. 24, 2013 Rise Set
Actual Time 6:17 AM EDT 8:53 PM EDT
Civil Twilight 5:46 AM EDT 9:24 PM EDT
Nautical Twilight 5:07 AM EDT 10:03 PM EDT
Astronomical Twilight 4:24 AM EDT 10:46 PM EDT
Moon 8:34 PM EDT (5/24) 5:48 AM EDT (5/24)
Length of Visible Light 15h 38m
Length of Day
14h 35m
Full, 100% of the Moon is Illuminated
May 24
Full
May 25
Full
May 31
Last Quarter
Jun 8
New
Jun 16
First Quarter

Hourly Weather History & Observations

Time (EDT) Temp. Dew Point Humidity Pressure Visibility Wind Dir Wind Speed Gust Speed Precip Events Conditions
12:07 AM 53.6 °F 44.6 °F 72% 30.12 in 10.0 mi North 9.2 mph 21.9 mph N/A   Overcast
12:53 AM 51.1 °F 43.0 °F 74% 30.14 in 10.0 mi North 10.4 mph 17.3 mph N/A   Overcast
1:22 AM 51.8 °F 44.6 °F 76% 30.14 in 10.0 mi North 5.8 mph - N/A   Overcast
1:53 AM 52.0 °F 44.1 °F 74% 30.15 in 10.0 mi NNE 11.5 mph - N/A   Overcast
2:53 AM 51.1 °F 44.1 °F 77% 30.17 in 10.0 mi NNE 9.2 mph - 0.00 in   Overcast
3:04 AM 51.8 °F 44.6 °F 76% 30.18 in 10.0 mi NNE 6.9 mph - N/A   Overcast
3:53 AM 51.1 °F 44.1 °F 77% 30.19 in 10.0 mi NNE 5.8 mph - N/A   Overcast
4:03 AM 51.8 °F 44.6 °F 76% 30.19 in 10.0 mi NNE 9.2 mph - N/A   Overcast
4:53 AM 50.0 °F 44.1 °F 80% 30.21 in 10.0 mi NNE 6.9 mph - N/A   Overcast
5:53 AM 50.0 °F 44.1 °F 80% 30.22 in 10.0 mi North 6.9 mph - N/A   Overcast
6:04 AM 50.0 °F 42.8 °F 76% 30.23 in 10.0 mi NE 11.5 mph - 0.00 in Rain Light Rain
6:23 AM 48.2 °F 42.8 °F 82% 30.23 in 10.0 mi NNE 9.2 mph - 0.00 in   Mostly Cloudy
6:53 AM 48.0 °F 41.0 °F 77% 30.25 in 10.0 mi NE 5.8 mph - 0.00 in   Scattered Clouds
7:53 AM 51.1 °F 42.1 °F 71% 30.27 in 10.0 mi NNE 5.8 mph - N/A   Partly Cloudy
8:53 AM 52.0 °F 41.0 °F 66% 30.30 in 10.0 mi NNE 5.8 mph - N/A   Partly Cloudy
9:53 AM 52.0 °F 39.0 °F 61% 30.33 in 10.0 mi North 11.5 mph - N/A   Scattered Clouds
10:53 AM 55.0 °F 41.0 °F 59% 30.33 in 10.0 mi NNW 8.1 mph - N/A   Mostly Cloudy
11:53 AM 57.9 °F 39.9 °F 51% 30.34 in 10.0 mi NNE 6.9 mph 19.6 mph N/A   Clear
12:53 PM 60.1 °F 43.0 °F 53% 30.34 in 10.0 mi NW 9.2 mph 18.4 mph N/A   Partly Cloudy
1:53 PM 61.0 °F 39.9 °F 46% 30.34 in 10.0 mi NW 10.4 mph - N/A   Partly Cloudy
2:53 PM 63.0 °F 41.0 °F 45% 30.33 in 10.0 mi NW 10.4 mph 17.3 mph N/A   Clear
3:53 PM 64.0 °F 39.0 °F 40% 30.32 in 10.0 mi North 5.8 mph 17.3 mph N/A   Clear
4:53 PM 64.9 °F 39.9 °F 40% 30.31 in 10.0 mi North 10.4 mph - N/A   Clear
5:53 PM 64.9 °F 39.0 °F 39% 30.31 in 10.0 mi North 9.2 mph - N/A   Clear
6:53 PM 64.9 °F 37.9 °F 37% 30.29 in 10.0 mi NW 9.2 mph - N/A   Clear
7:53 PM 64.0 °F 37.9 °F 38% 30.28 in 10.0 mi Calm Calm - N/A   Clear
8:53 PM 53.1 °F 45.0 °F 74% 30.28 in 10.0 mi Calm Calm - N/A   Clear
9:53 PM 48.9 °F 44.1 °F 83% 30.29 in 10.0 mi Calm Calm - N/A   Clear
10:53 PM 46.9 °F 44.1 °F 90% 30.32 in 10.0 mi Calm Calm - N/A   Clear
11:53 PM 45.0 °F 42.1 °F 90% 30.32 in 10.0 mi Calm Calm - N/A   Clear